Theta_e
275 274 273 272 272 271 271 272 274 274 276 277 278 279 280 280 281 281 281 281 282 282
273 272 271 271 271 271 272 273 273 274 275 277 278 279 280 280 280 281 281 282 282 281
272 271 271 271 270 271 271 272 273 274 275 276 277 278 280 279 280 280 281 281 281 280
271 271 271 270 270 270 271 271 272 273 274 275 276 278 279 278 278 278 279 280 280 279
271 270 270 269 269 270 270 271 272 273 274 275 276 277 278 276 278 277 276 277 278 278
270 269 268 268 268 269 269 270 271 272 273 274 275 277 279 277 276 277 276 276 277 277
269 268 267 266 265 265 267 268 268 270 271 272 275 279 279 277 276 277 276 276 277 277
268 266 264 262 262 263 265 266 266 268 269 271 275 280 279 277 275 276 275 276 276 277
264 262 261 260 261 263 264 264 265 266 268 270 274 281 280 278 274 275 274 274 275 276
262 260 259 260 262 263 263 264 264 265 268 268 271 280 280 277 275 275 274 273 274 275
262 262 260 261 262 261 264 265 267 266 267 269 270 279 279 276 274 274 273 273 273 274
263 262 261 262 262 263 266 267 267 268 267 268 269 278 279 274 273 272 271 272 272 274
264 263 263 263 262 264 266 267 269 270 268 267 269 275 278 276 272 270 270 271 272 276
265 264 265 265 265 265 266 266 265 268 268 269 269 271 277 277 273 270 269 269 270 274
Wind_Speed
4 3 3 4 4 4 5 6 9 9 9 10 11 11 10 8 9 10 10 13 12 10
4 4 3 4 4 4 5 6 8 9 9 10 10 11 9 8 10 10 10 9 12 10
5 4 3 3 4 5 6 7 8 9 9 9 10 10 12 10 10 11 8 8 13 12
5 4 4 3 4 5 6 7 7 8 8 9 10 10 11 11 11 11 11 12 13 14
6 5 4 3 4 5 6 6 7 7 7 9 9 9 11 12 10 11 12 12 13 14
7 5 4 3 4 5 5 6 7 7 8 8 9 9 10 11 10 10 11 11 12 13
8 6 4 3 4 4 4 6 7 6 6 8 8 8 9 11 11 10 10 10 11 11
8 6 5 4 3 4 4 5 5 5 6 7 8 9 11 11 11 10 11 10 11 11
8 6 5 4 4 4 3 4 5 6 6 7 7 18 17 16 10 10 11 11 11 12
8 7 5 4 5 4 3 3 5 5 6 7 9 19 19 18 9 9 10 10 10 10
9 8 6 5 5 3 2 3 3 4 5 6 6 18 19 16 9 8 9 9 10 10
10 9 7 6 6 3 3 2 3 2 5 6 7 18 19 11 9 9 9 8 9 10
10 10 9 8 6 3 2 3 3 4 4 5 7 16 18 13 7 8 7 7 9 15
9 10 9 7 4 4 4 4 4 4 4 4 5 9 18 18 7 6 6 7 8 8
Wind_Direction
104 80 56 21 5 359 356 339 348 345 345 348 347 350 360 357 358 357 2 1 354 338
111 84 59 26 14 356 359 347 352 346 343 348 355 356 350 359 359 359 360 360 356 346
121 101 80 45 24 9 358 356 355 352 345 349 356 360 6 0 359 356 359 359 354 350
131 111 86 57 27 18 356 3 2 352 345 350 353 358 2 4 8 0 352 357 355 352
132 123 106 77 42 27 4 7 5 354 353 350 352 354 3 1 2 4 358 357 356 352
137 134 120 88 60 43 7 11 12 5 2 348 341 344 7 359 354 0 357 356 356 349
145 144 129 101 69 50 13 19 20 1 351 344 330 346 15 3 354 354 355 355 356 353
135 129 123 107 84 65 40 32 27 358 358 341 346 3 12 11 355 353 353 353 360 354
134 134 137 123 97 80 44 35 44 17 1 352 349 2 19 7 359 357 356 350 358 352
144 139 149 135 114 88 48 45 43 19 9 356 342 0 17 13 4 0 357 350 356 355
151 145 145 138 123 116 74 52 38 17 2 359 343 356 10 17 4 2 358 349 351 350
158 150 150 147 144 130 116 77 58 30 9 1 343 352 14 30 4 5 0 347 343 345
158 154 156 149 148 144 146 104 70 49 25 356 338 344 18 33 6 9 2 350 345 345
159 154 153 143 139 147 124 100 65 49 19 0 337 328 19 21 24 29 5 359 348 343